Regional Weather Roundup
Issued by NWS Cleveland, OH

Home | Current Version | Previous Version | Graphics & Text | Print | Product List | Glossary On
Versions: 1 2 3 4 5 6 7 8 9 10 11 12 13 14 15 16 17 18 19 20 21 22 23 24 25 26 27 28 29 30 31 32 33 34 35 36 37 38 39 40 41 42 43 44 45 46 47 48 49 50
000
ASUS41 KCLE 270910
RWRCLE
OHIO REGIONAL WEATHER ROUNDUP
NATIONAL WEATHER SERVICE CLEVELAND, OH
500 AM EDT TUE SEP 27 2016

NOTE: "FAIR" INDICATES FEW OR NO CLOUDS BELOW 12,000 FEET WITH NO
SIGNIFICANT WEATHER AND/OR OBSTRUCTIONS TO VISIBILITY.

OHZ001>008-015>018-024>027-034-035-043-044-271000-
   NORTHWEST OHIO

CITY           SKY/WX    TMP DP  RH WIND       PRES   REMARKS
DEFIANCE       CLEAR     51  39  63 SW5       29.90F
FINDLAY        CLEAR     49  39  68 S7        29.91F
TOLEDO EXPRESS CLEAR     51  41  68 SW9       29.88F
TOLEDO EXEC    CLEAR     50  42  74 SW8       29.89F
LIMA           CLEAR     48  42  80 S6        29.93F
$$

OHZ009>014-019>023-028>033-038-089-271000-
   NORTHEAST OHIO

CITY           SKY/WX    TMP DP  RH WIND       PRES   REMARKS
CLE-HOPKINS    CLEAR     53  43  68 S9        29.93F
CLE-LAKEFRONT  CLEAR     55  43  63 S13       29.89F
CUY CO. ARPT   NOT AVBL
LORAIN-ELYRIA  CLEAR     47  41  80 SW7       29.92S
ASHTABULA      CLEAR     51  49  92 SW8       29.91F
AKRON-CANTON   CLEAR     49  44  83 SW6       29.95S
WOOSTER        CLEAR     48  45  89 SW6       29.95F
MANSFIELD      CLEAR     47  42  83 S6        29.94F
YOUNGSTOWN     CLEAR     50  48  93 S6        29.93F
$$

OHZ042-051>053-060>062-070>072-077>081-271000-
  SOUTHWEST OHIO

CITY           SKY/WX    TMP DP  RH WIND       PRES   REMARKS
CINC-COVINGTON CLEAR     52  50  93 SW5       30.02S
CINC-LUNKEN    CLEAR     48  48 100 CALM      30.03S
HAMILTON       CLEAR     44  42  93 CALM      30.02S FOG
DAYTON         CLEAR     50  45  83 SW10      29.99F
WRIGHT-PAT AFB CLEAR     50  46  84 S2        29.98F
DAYTON GENERAL CLEAR     49  45  86 S5        29.99F
WILMINGTON     CLEAR     48  47  96 SW6       30.01S
$$

OHZ036-037-039>041-045>050-054>059-063>069-073>076-082>088-271000-
  CENTRAL AND SOUTHEAST OHIO

CITY           SKY/WX    TMP DP  RH WIND       PRES   REMARKS
COLUMBUS       CLEAR     50  50 100 S6        29.98F
OSU AIRPORT    CLEAR     50  48  93 SW6       29.98S
BOLTON FIELD   CLEAR     46  45  97 SW7       29.99S
RICKENBACK AFB CLEAR     49  48  97 SW6       29.98F
NEWARK         CLEAR     46  45  96 CALM      29.98F FOG
MARION         CLEAR     46  43  89 S7        29.96S
LANCASTER      CLEAR     53  48  83 S5        29.99F
ZANESVILLE     CLEAR     50  48  93 S6        29.99S
NEW PHILLY     CLEAR     49  49 100 CALM      29.98S
$$




USA.gov is the U.S. government's official web portal to all federal, state and local government web resources and services.